User: anonymous   Login
Location: Unspecified
(0.0000°N, 0.0000°E)
Time: 13:49:04
(UTC+01:00)
Language:

Sapphire - Orbit

View from above orbital plane
View from above orbital plane
View from above satellite
View from above satellite

Ground track
Ground track

The orbit data is extracted from the following two-line orbital elements,

1 26932U 01043D   17015.49186313 -.00000047  00000-0  13634-4 0  9992
2 26932  67.0565 127.2870 0005157 293.3536  66.7023 14.30236993798535
Epoch (UTC): 15 January 2017 11:48:16
Eccentricity: 0.0005157
inclination: 67.0565°
perigee height: 787 km
apogee height: 794 km
right ascension of ascending node: 127.2870°
argument of perigee: 293.3536°
revolutions per day: 14.30236993
mean anomaly at epoch: 66.7023°
orbit number at epoch: 79853

The dashed part of the orbit path shows where the satellite is in the earth's shadow,  

DLR